Regional Weather Roundup
Issued by NWS

Home | Current Version | Previous Version | Graphics & Text | Print | Product List | Glossary On
Versions: 1 2 3 4 5 6 7 8 9 10 11 12 13 14 15 16 17 18 19 20 21 22 23 24 25 26 27
000
ASUS45 KCYS 221610
RWRWY

WYOMING REGIONAL WEATHER ROUNDUP
NATIONAL WEATHER SERVICE CHEYENNE WY
1000 AM MDT FRI SEP 22 2017

NOTE:  "FAIR" INDICATES FEW OR NO CLOUDS BELOW 12,000 FEET
WITH NO SIGNIFICANT WEATHER AND/OR OBSTRUCTIONS TO VISIBILITY.

WYZ001-221700-
YELLOWSTONE NATIONAL PARK

CITY           SKY/WX    TMP DP  RH WIND       PRES   REMARKS
LK YELLOWSTONE NOT AVBL
W YELLOWSTONE  NOT AVBL

$$
WYZ002>013-054>058-071-098>099-221700-
NORTHERN WYOMING

CITY           SKY/WX    TMP DP  RH WIND       PRES   REMARKS
JACKSON        CLOUDY    39  36  89 S6        29.87R WCI  35
CODY           PTSUNNY   34  34 100 NE6       29.97S WCI  29
GREYBULL       LGT RAIN  39  38  96 W7        29.97R WCI  34
WORLAND        LGT RAIN  39  38  96 W5        29.96F
SHERIDAN       CLOUDY    44  41  89 N7        29.95F
BUFFALO        LGT RAIN  40  36  86 N10       29.99R WCI  33
GILLETTE       CLOUDY    47  36  65 N16       29.93R
HULETT         CLOUDY    46  36  66 N8        29.92R
NEWCASTLE      FAIR      55  37  50 W6G17     29.85R

$$
WYZ014>020-022>026-101>103-221700-
CENTRAL WYOMING

CITY           SKY/WX    TMP DP  RH WIND       PRES   REMARKS
BIG PINEY      PTSUNNY   43  36  76 S13       29.89R
PINEDALE       PTSUNNY   41  37  87 SE14G22   29.90S
DUBOIS         CLOUDY    32  32 100 SE16G23   29.91F WCI  21
LANDER           N/A    N/A N/A N/A MISG      29.93S
RIVERTON       CLOUDY    38  36  92 NW6       29.95R WCI  33
CASPER         CLOUDY    44  33  65 N8        29.98R
DOUGLAS        FAIR      50  33  52 NW20      29.92S

$$
WYZ021-027>030-104>119-221700-
SOUTHERN WYOMING

CITY           SKY/WX    TMP DP  RH WIND       PRES   REMARKS
EVANSTON       CLOUDY    38  37  97 SW13      29.89R WCI  30
KEMMERER         N/A     37  36  93 W5        29.89S WCI  34
FORT BRIDGER   PTSUNNY   44  42  89 E6        29.90S
ROCK SPRINGS   CLOUDY    42  38  85 NE10      29.90R
DIXON          FAIR      53  36  53 N16       29.95R
RAWLINS        FAIR      46  32  58 N8        29.95R
SARATOGA       FAIR      50  34  53 N14G25    29.96R
LARAMIE        FAIR      66  27  23 SW30G38   29.90R
CHEYENNE       FAIR      58  39  49 VRB5      29.87R
TORRINGTON     FAIR      56  36  47 W8        29.83S
PINE BLUFFS    FAIR      55  39  54 NE7       29.86S

$$




USA.gov is the U.S. government's official web portal to all federal, state and local government web resources and services.